Weather History for Kalamazoo, MI

Change the Weather History Date:

Saturday, June 23, 2012

  Actual Average Record
Temperature  
Mean Temperature 70 °F 70 °F  
Max Temperature 86 °F 81 °F 95 °F (1988)
Min Temperature 54 °F 60 °F 45 °F (1972)
Degree Days  
Heating Degree Days 0 1  
Month to date heating degree days 46  
Since 1 June heating degree days 46  
Since 1 July heating degree days 6414  
Cooling Degree Days 5 6  
Month to date cooling degree days 98  
Year to date cooling degree days 139  
Since 1 June cooling degree days 98  
Growing Degree Days 20 (Base 50)    
Moisture  
Dew Point 52 °F    
Average Humidity 54    
Maximum Humidity 90    
Minimum Humidity 28    
Precipitation  
Precipitation 0.00 in 0.11 in 1.08 in (2014)
Month to date precipitation 0.81 2.86  
Year to date precipitation 15.30  
Sea Level Pressure  
Sea Level Pressure 30.03 in    
Wind  
Wind Speed 3 mph (NW)    
Max Wind Speed 12 mph    
Max Gust Speed 15 mph    
Visibility 10 miles    
Events      
T = Trace of Precipitation, MM = Missing Value Source: NWS Daily Summary

Daily Weather History Graph

Daily Weather History Graph

Search for Another Location

Airport:

Trip Planner

Search our weather history database for the weather conditions in past years. The results will help you decide how hot, cold, wet, or windy it might be!

Date:

Astronomy

Jun. 23, 2012 Rise Set
Actual Time 6:06 AM EDT 9:22 PM EDT
Civil Twilight 5:31 AM EDT 9:57 PM EDT
Nautical Twilight 4:47 AM EDT 10:41 PM EDT
Astronomical Twilight 3:52 AM EDT 11:36 PM EDT
Moon 10:12 AM EDT (6/23) 11:45 PM EDT (6/23)
Length of Visible Light 16h 25m
Length of Day
15h 16m
Waxing Crescent, 16% of the Moon is Illuminated
Jun 23
Waxing Crescent
Jun 26
First Quarter
Jul 3
Full
Jul 10
Last Quarter
Jul 19
New

Hourly Weather History & Observations

Time (EDT) Temp. Dew Point Humidity Pressure Visibility Wind Dir Wind Speed Gust Speed Precip Events Conditions
12:53 AM 62.1 °F 53.1 °F 72% 30.01 in 10.0 mi Calm Calm - N/A   Clear
1:53 AM 61.0 °F 53.1 °F 75% 30.00 in 10.0 mi Calm Calm - N/A   Clear
2:53 AM 61.0 °F 54.0 °F 78% 30.01 in 10.0 mi NE 3.5 mph - N/A   Clear
3:53 AM 57.9 °F 53.1 °F 84% 30.01 in 10.0 mi Calm Calm - N/A   Clear
4:53 AM 55.9 °F 53.1 °F 90% 30.03 in 10.0 mi Calm Calm - N/A   Clear
5:53 AM 57.0 °F 54.0 °F 89% 30.02 in 10.0 mi Calm Calm - N/A   Clear
6:53 AM 57.0 °F 54.0 °F 89% 30.04 in 10.0 mi Calm Calm - N/A   Clear
7:53 AM 64.0 °F 57.0 °F 78% 30.03 in 10.0 mi Calm Calm - N/A   Clear
8:53 AM 68.0 °F 55.0 °F 63% 30.06 in 10.0 mi South 3.5 mph - N/A   Clear
9:53 AM 73.0 °F 54.0 °F 51% 30.06 in 10.0 mi Calm Calm - N/A   Clear
10:53 AM 77.0 °F 52.0 °F 42% 30.04 in 10.0 mi Calm Calm - N/A   Clear
11:53 AM 80.1 °F 52.0 °F 38% 30.05 in 10.0 mi WNW 6.9 mph - N/A   Clear
12:53 PM 81.0 °F 52.0 °F 36% 30.06 in 10.0 mi NW 4.6 mph - N/A   Mostly Cloudy
1:53 PM 80.6 °F 51.8 °F 37% 30.05 in 10.0 mi NNE 5.8 mph - N/A   Mostly Cloudy
2:53 PM 84.0 °F 50.0 °F 31% 30.04 in 10.0 mi WNW 6.9 mph - N/A   Partly Cloudy
3:53 PM 84.0 °F 48.0 °F 28% 30.02 in 10.0 mi Variable 3.5 mph - N/A   Clear
4:53 PM 84.0 °F 48.9 °F 29% 30.02 in 10.0 mi WSW 5.8 mph - N/A   Partly Cloudy
5:53 PM 82.9 °F 51.1 °F 33% 30.01 in 10.0 mi West 5.8 mph - N/A   Partly Cloudy
6:53 PM 82.0 °F 51.1 °F 34% 30.01 in 10.0 mi WNW 4.6 mph - N/A   Clear
7:53 PM 81.0 °F 52.0 °F 36% 30.01 in 10.0 mi NW 10.4 mph - N/A   Clear
8:53 PM 77.0 °F 50.0 °F 39% 30.03 in 10.0 mi North 8.1 mph - N/A   Clear
9:53 PM 75.0 °F 51.1 °F 43% 30.03 in 10.0 mi North 4.6 mph - N/A   Clear
10:53 PM 75.0 °F 52.0 °F 44% 30.04 in 10.0 mi Calm Calm - N/A   Clear
11:53 PM 73.9 °F 53.1 °F 48% 30.03 in 10.0 mi Calm Calm - N/A   Clear